Temperature
16 17 16 16 16 16 16 16 16 16 16 16 15 15 15 15 15 15 15 15 15 15 15 15 15 15 15 15 15 15 15 15 15 16 16 15 15 15 15 15 15 15 15
17 17 16 16 16 16 16 16 16 16 16 16 16 16 16 15 15 15 15 15 15 15 15 15 14 14 15 15 14 14 15 15 15 15 15 15 14 14 15 15 15 15 15
17 16 16 16 16 16 16 16 16 16 16 16 16 16 16 15 15 15 15 15 15 15 15 15 14 14 14 14 14 14 14 14 14 14 14 15 14 14 14 14 14 14 15
17 16 16 16 16 16 16 16 16 16 16 16 15 15 15 15 15 15 15 15 15 15 15 15 14 14 14 14 14 14 14 14 14 14 14 14 14 14 14 14 14 14 14
17 16 16 16 16 16 16 16 16 16 16 16 15 15 15 15 15 15 15 15 15 15 15 14 14 14 14 14 13 13 13 13 13 14 14 14 14 14 14 14 14 14 14
16 16 16 16 16 16 16 16 16 16 16 15 15 15 15 15 15 15 15 14 14 14 14 14 14 13 13 13 13 13 13 13 13 13 13 13 13 13 13 13 13 13 13
16 16 16 16 16 16 16 16 15 15 15 15 15 15 15 15 15 15 15 14 14 13 13 13 13 13 13 12 12 12 12 12 12 12 12 12 12 12 12 12 11 11 12
16 16 16 16 16 16 15 15 15 15 15 15 14 14 14 14 14 14 14 13 13 13 12 12 12 12 12 12 11 11 11 11 11 11 11 11 11 11 11 11 11 11 11
15 15 15 15 15 15 15 15 14 14 14 14 13 13 13 13 13 13 13 12 12 12 11 11 11 11 11 11 11 10 10 10 10 10 10 10 11 10 10 10 10 10 10
15 14 14 14 14 14 14 14 14 14 13 13 13 12 12 12 12 12 12 11 11 11 10 10 10 10 10 10 10 9 9 9 9 9 9 9 9 9 9 9 9 9 9
14 14 14 13 13 13 13 13 13 12 12 12 12 11 11 11 11 11 11 10 10 9 9 9 9 9 9 9 9 8 8 8 8 8 8 8 8 8 8 8 7 7 8
13 13 13 12 12 12 12 12 12 11 11 11 10 10 10 9 9 9 9 9 9 8 8 8 8 8 8 8 7 7 7 7 7 7 7 7 7 7 7 7 7 6 6
12 12 12 12 11 11 11 11 11 10 10 10 10 9 9 8 8 8 8 8 8 8 7 7 7 7 7 6 6 6 6 6 6 6 6 6 6 6 6 6 6 6 6
12 11 11 11 10 10 10 10 10 10 10 9 9 9 8 7 7 7 7 7 6 6 6 6 6 6 6 5 5 5 5 5 5 5 5 5 5 5 5 5 5 5 5
11 10 10 10 10 9 9 9 9 9 8 8 8 7 7 7 6 6 6 6 6 6 6 6 6 6 5 5 5 5 4 4 4 4 4 4 4 4 4 4 4 4 4
10 10 10 9 9 9 9 8 8 8 7 7 7 6 6 6 5 5 5 5 5 5 5 5 5 5 5 4 4 4 4 4 3 3 3 3 3 3 3 3 3 3 3
9 9 9 9 9 9 8 8 7 7 6 6 6 5 5 5 5 4 4 4 4 4 4 4 4 4 3 3 3 3 3 2 2 2 2 2 2 2 2 2 2 2 3
9 9 9 8 8 8 8 7 7 7 6 5 5 4 4 4 4 4 4 4 4 4 3 3 3 3 2 2 2 2 2 2 1 1 1 1 1 1 1 1 1 2 2
8 8 8 8 8 7 7 7 7 6 6 5 5 4 4 3 3 3 3 3 3 3 3 2 2 2 1 1 1 1 1 1 1 1 1 1 1 1 1 1 1 1 1
8 7 7 7 7 7 6 6 6 5 5 5 4 4 3 3 4 3 2 2 2 2 2 1 1 1 1 0 0 0 0 0 0 0 0 0 0 0 0 0 0 1 1
7 7 6 7 6 6 6 5 5 5 4 4 4 3 3 3 3 2 2 2 1 1 1 1 1 1 0 0 -0 -0 -0 -0 -0 -0 -0 -0 -0 -0 -0 -0 0 0 0
7 6 6 6 5 5 5 5 4 4 4 3 3 3 2 2 2 2 1 1 1 0 0 0 0 -0 -0 -1 -1 -1 -1 -1 -1 -1 -1 -1 -1 -1 -0 -0 -0 -0 0
6 6 5 5 5 4 4 4 4 4 3 3 3 2 2 2 2 1 1 0 0 -0 -0 -1 -1 -1 -1 -1 -1 -1 -1 -1 -1 -1 -1 -1 -1 -1 -0 -0 -0 -0 0
6 5 5 5 4 4 4 3 3 3 3 2 2 2 1 1 1 0 0 -0 -0 -0 -1 -1 -1 -1 -1 -1 -1 -1 -1 -1 -1 -1 -1 -1 -1 -1 -0 -0 -0 0 0
5 5 4 4 4 4 3 3 3 2 2 2 1 1 1 1 0 0 -0 -0 -1 -1 -1 -1 -1 -1 -2 -2 -2 -2 -1 -1 -1 -1 -1 -1 -1 -1 -1 -0 -0 0 0
4 4 4 4 3 3 3 2 2 2 1 1 1 1 0 0 -0 -0 -1 -1 -1 -1 -1 -1 -2 -2 -2 -2 -2 -1 -1 -1 -1 -1 -1 -1 -1 -1 -1 -0 -0 0 0
Wind_Speed
12 12 11 11 11 10 9 9 8 8 8 8 7 7 7 7 7 7 7 6 7 7 7 7 7 6 6 6 6 6 6 7 8 7 6 5 6 8 7 9 11 12 13
12 11 11 10 10 10 10 9 8 8 8 8 7 7 7 7 7 7 8 8 8 8 8 8 8 7 8 8 7 8 7 7 8 10 8 7 8 9 9 9 11 12 13
12 12 11 11 11 10 9 8 8 8 7 7 7 7 7 7 7 7 8 8 8 8 8 9 9 9 9 8 8 9 8 8 8 9 10 8 8 8 8 10 12 10 13
13 12 11 11 10 9 8 8 7 7 7 6 6 6 6 6 6 7 7 8 8 8 8 8 8 8 9 9 9 9 9 9 9 10 10 9 9 9 8 9 10 9 10
12 12 11 11 10 9 8 8 7 6 6 5 5 4 4 4 4 5 5 6 6 6 6 6 6 4 3 5 7 7 8 8 9 9 10 9 9 8 8 8 10 10 10
12 11 11 10 10 9 8 7 6 6 5 4 4 3 2 1 4 4 3 4 3 3 3 3 3 2 3 3 5 6 6 8 9 9 9 10 10 9 8 9 10 11 11
10 10 10 10 9 8 8 7 6 6 5 4 3 3 3 5 7 4 2 1 1 1 1 2 1 3 3 3 3 5 5 4 5 7 10 9 8 7 8 10 10 12 12
10 10 9 9 9 9 8 7 6 5 5 5 4 4 5 7 8 6 3 1 2 3 3 2 2 3 5 5 5 4 4 3 3 5 6 8 8 8 8 10 11 13 14
10 10 9 9 9 9 9 8 7 7 7 7 7 8 8 9 10 8 5 3 3 4 4 4 3 3 7 8 5 5 5 5 4 4 7 9 11 11 10 9 11 12 14
11 10 10 9 10 10 10 9 9 9 9 9 9 9 9 9 11 11 8 3 4 3 3 3 6 5 6 7 6 6 7 7 8 8 8 10 11 11 11 10 11 12 13
12 12 12 11 11 11 11 10 10 9 10 9 9 9 9 9 11 12 10 6 4 3 3 3 4 6 5 6 6 6 6 8 9 9 9 9 8 8 8 9 9 10 12
14 14 13 12 11 11 11 10 9 9 9 8 8 7 6 7 8 9 9 7 6 4 4 4 5 5 5 6 5 5 8 9 8 8 9 9 8 8 8 9 10 12 13
15 14 13 13 11 10 10 10 8 6 6 6 5 5 5 5 5 5 4 4 3 4 4 3 3 5 8 6 4 6 8 8 8 9 9 9 9 10 10 10 12 12 14
15 13 12 12 11 10 8 7 7 6 5 5 4 4 4 4 5 5 4 4 2 3 5 3 7 9 8 6 6 6 6 7 8 9 10 10 10 10 10 10 11 11 12
14 12 11 11 11 10 10 9 8 9 7 5 5 4 4 5 7 9 8 7 8 8 9 7 6 6 7 7 7 7 8 8 8 8 9 10 10 11 11 10 10 11 12
11 10 8 8 8 8 9 10 15 12 13 14 13 9 9 9 6 6 6 6 7 10 10 6 7 8 8 9 9 9 9 9 9 10 10 10 10 11 11 11 11 11 12
10 8 7 7 7 6 6 7 7 8 10 12 12 12 10 7 5 5 5 7 8 10 6 7 7 8 8 9 9 9 10 10 10 10 10 10 10 11 11 11 12 12 12
9 8 6 6 6 5 5 4 4 4 5 5 7 8 6 4 2 3 7 9 5 4 7 7 8 8 8 9 9 9 10 10 10 10 10 10 10 11 11 12 12 13 13
8 6 6 6 5 5 4 4 4 3 3 4 3 4 3 4 6 3 6 6 7 7 7 8 8 8 8 8 9 9 10 10 10 10 10 10 10 11 11 12 12 15 14
7 8 5 5 5 4 4 3 3 3 3 3 3 5 4 4 4 4 5 7 7 7 8 8 8 8 8 8 9 9 10 10 11 10 11 11 11 11 12 13 13 13 13
7 7 5 4 5 4 4 4 4 3 3 3 3 5 6 6 6 6 7 7 7 8 8 9 9 9 9 8 9 10 12 11 10 11 11 11 12 12 12 12 13 13 13
5 5 4 5 5 5 4 4 4 3 3 3 3 3 1 4 6 6 7 7 8 7 8 8 9 8 9 9 10 10 11 11 11 12 12 13 12 12 13 12 12 13 13
5 5 5 5 5 4 3 3 3 3 3 3 4 4 5 6 6 7 7 8 8 8 9 9 9 9 10 11 11 10 10 11 12 14 14 14 13 13 12 13 14 15 14
5 5 5 5 4 3 3 3 3 4 4 4 4 5 5 6 6 7 8 8 8 8 9 9 9 11 14 13 12 12 12 15 17 16 16 14 14 13 13 13 14 15 14
5 5 5 4 4 4 3 3 4 4 4 4 4 5 6 6 6 7 7 8 9 9 11 11 10 11 14 15 15 16 19 21 18 16 16 13 14 14 14 14 14 15 14
5 5 5 4 4 3 3 3 3 3 4 4 4 5 6 6 7 7 7 8 9 9 10 10 13 15 15 14 17 20 20 19 19 19 17 13 13 13 14 13 16 15 15
Wind_Direction
180 181 180 181 181 182 186 188 187 188 185 190 196 202 207 209 209 212 225 216 221 223 224 226 231 249 249 246 243 246 249 255 263 269 257 240 239 262 254 250 251 247 243
177 174 175 175 177 182 187 189 190 192 195 198 201 207 213 214 214 218 225 224 225 229 230 232 235 231 234 250 252 251 251 254 260 269 270 258 239 245 252 256 258 254 258
172 173 174 175 178 183 187 188 193 194 199 204 205 211 217 220 222 227 232 234 234 236 237 237 239 239 239 242 244 251 251 247 248 262 266 267 262 253 252 253 256 257 264
171 172 174 178 178 179 181 185 190 193 198 206 211 217 221 224 230 234 236 239 241 242 242 243 243 242 242 247 248 250 257 261 255 257 264 265 260 256 254 262 264 251 255
171 171 174 173 171 174 175 180 182 187 194 196 203 212 223 232 244 247 246 246 248 249 247 247 249 255 284 272 269 266 261 258 261 260 263 267 267 268 265 271 275 279 271
171 171 167 164 165 167 168 171 173 178 184 180 186 185 195 256 50 37 300 273 266 260 263 266 258 254 264 255 276 285 288 274 273 275 274 277 283 286 289 284 285 282 280
160 158 156 158 157 158 161 161 160 156 147 142 141 131 107 61 55 64 48 337 355 351 344 330 327 20 14 322 272 244 258 263 279 282 284 290 295 300 301 291 287 285 284
145 146 147 147 147 144 140 137 132 127 124 120 114 106 90 62 50 50 44 86 63 53 46 41 33 24 15 350 320 306 298 295 284 274 283 287 293 302 292 284 284 281 275
137 138 138 138 135 130 126 122 118 113 106 99 91 87 83 64 45 36 13 82 75 64 52 47 36 33 22 351 323 311 304 296 264 256 274 276 281 278 275 280 278 276 278
126 123 123 123 122 119 116 113 109 107 104 98 89 81 77 68 51 38 8 47 58 47 51 61 62 33 15 353 328 315 307 311 313 301 280 268 266 262 242 250 271 277 280
111 109 107 106 108 108 105 104 105 104 100 95 92 85 78 70 68 51 32 33 22 9 1 354 38 41 4 338 312 310 317 310 300 293 289 285 279 274 267 259 263 271 279
104 101 100 100 102 103 102 99 99 104 106 101 96 88 83 74 60 58 50 39 4 2 350 353 19 13 331 307 304 320 299 288 288 291 290 290 291 292 294 294 290 281 276
104 101 100 98 96 99 102 103 101 99 97 96 93 88 78 69 77 84 70 52 7 353 353 9 322 288 281 273 235 265 281 291 303 301 300 301 304 305 302 295 286 279 275
105 103 103 101 98 91 88 89 87 84 86 88 81 77 77 71 42 23 16 17 360 343 340 280 231 241 257 280 289 284 300 317 316 307 305 305 305 302 298 299 299 299 294
106 106 104 100 97 90 78 61 71 63 58 57 64 59 47 53 40 19 8 8 357 352 325 311 321 330 327 332 330 328 323 320 315 313 309 307 306 306 306 306 303 300 295
108 107 107 107 106 106 103 89 60 69 72 65 52 48 67 65 53 33 22 360 335 321 314 332 339 338 336 336 332 329 328 328 328 322 317 315 313 310 308 306 303 299 296
102 103 106 107 111 112 112 113 112 97 87 81 74 65 66 69 53 22 347 317 290 294 322 349 345 341 338 334 331 330 329 331 329 321 318 316 314 311 308 305 303 300 298
101 98 101 103 104 104 104 105 106 111 117 105 100 99 100 101 71 342 314 305 318 333 352 347 341 338 335 333 331 329 326 326 324 321 318 316 313 310 308 306 304 303 302
100 102 99 100 101 99 99 96 89 83 77 80 92 118 149 189 194 240 299 343 353 350 349 344 340 338 335 333 331 327 324 321 320 317 315 315 312 309 306 304 303 301 297
93 78 87 103 103 100 92 82 76 71 66 60 45 29 6 333 348 5 356 357 349 349 346 341 338 334 332 330 327 325 323 320 320 318 318 316 312 308 305 304 302 301 299
105 106 108 100 91 86 83 77 70 61 55 45 47 50 346 340 358 1 355 355 351 347 344 339 333 332 333 330 329 326 323 322 323 322 319 316 313 310 306 302 299 298 297
105 107 103 95 92 84 82 79 71 66 54 32 27 73 312 334 1 359 355 353 351 346 342 336 331 332 335 333 329 325 323 324 326 325 320 315 311 307 304 302 301 301 301
103 102 99 94 95 99 93 80 70 59 46 34 21 13 9 4 359 359 354 350 346 341 340 336 331 333 338 333 328 324 324 329 328 321 315 309 307 305 303 303 302 302 302
100 99 102 105 102 94 81 73 62 53 44 31 20 11 7 3 357 356 350 349 345 343 342 338 335 334 335 334 330 328 338 338 327 315 309 304 302 301 302 302 302 302 302
103 100 100 95 92 86 75 63 53 45 37 26 18 8 4 359 356 354 351 349 343 342 341 339 338 337 335 334 336 337 340 332 323 317 309 300 298 299 301 303 304 305 304
101 100 97 93 85 76 68 59 52 42 32 23 15 7 0 356 355 353 351 349 343 342 341 340 340 339 336 339 344 340 334 328 323 316 309 300 299 303 309 309 309 308 308
Height
1512 1516 1520 1523 1527 1530 1534 1538 1541 1543 1546 1548 1550 1551 1553 1554 1555 1556 1557 1557 1558 1558 1559 1559 1559 1560 1561 1562 1562 1562 1562 1563 1562 1562 1563 1562 1560 1560 1560 1559 1559 1558 1558
1511 1514 1518 1521 1525 1529 1533 1536 1539 1541 1544 1546 1548 1550 1551 1552 1553 1553 1554 1555 1555 1556 1556 1556 1557 1557 1557 1558 1558 1558 1559 1558 1559 1558 1558 1558 1556 1555 1554 1554 1554 1554 1554
1510 1513 1516 1519 1523 1526 1530 1534 1537 1539 1541 1544 1545 1547 1548 1549 1550 1551 1552 1552 1552 1553 1553 1553 1553 1553 1553 1554 1554 1554 1555 1555 1554 1554 1553 1554 1553 1552 1551 1549 1549 1548 1548
1508 1512 1515 1518 1521 1524 1528 1531 1534 1537 1539 1541 1543 1544 1546 1546 1547 1548 1548 1548 1549 1549 1549 1549 1549 1549 1549 1550 1550 1549 1550 1550 1550 1549 1548 1548 1548 1547 1546 1545 1545 1544 1542
1507 1510 1513 1517 1520 1523 1526 1529 1532 1534 1537 1538 1540 1541 1542 1543 1544 1544 1545 1545 1545 1545 1545 1545 1545 1545 1544 1545 1545 1545 1545 1545 1545 1544 1543 1543 1543 1542 1541 1540 1539 1538 1536
1505 1509 1512 1515 1518 1521 1524 1527 1529 1531 1533 1535 1537 1538 1539 1540 1540 1540 1541 1541 1541 1541 1541 1540 1540 1540 1539 1539 1539 1539 1539 1539 1539 1538 1537 1537 1537 1536 1535 1534 1533 1531 1530
1504 1507 1510 1513 1516 1519 1522 1524 1527 1529 1530 1532 1533 1534 1535 1536 1536 1537 1537 1537 1537 1537 1536 1536 1536 1535 1535 1534 1534 1533 1533 1532 1532 1532 1531 1531 1530 1529 1528 1527 1526 1525 1522
1502 1506 1509 1512 1515 1517 1520 1522 1524 1526 1528 1529 1531 1532 1532 1532 1533 1533 1533 1533 1533 1533 1532 1532 1531 1531 1530 1530 1529 1528 1528 1527 1526 1526 1525 1524 1523 1522 1522 1520 1518 1516 1514
1502 1505 1508 1511 1514 1516 1518 1520 1522 1524 1526 1527 1529 1529 1530 1530 1530 1530 1530 1530 1530 1529 1529 1528 1527 1527 1526 1525 1525 1524 1523 1522 1521 1520 1518 1517 1516 1515 1514 1513 1511 1510 1507
1501 1504 1508 1510 1513 1515 1517 1519 1521 1523 1524 1526 1527 1528 1528 1529 1529 1529 1529 1529 1528 1528 1527 1526 1524 1523 1522 1521 1520 1519 1518 1517 1515 1514 1512 1511 1509 1508 1506 1505 1504 1503 1501
1501 1505 1507 1510 1513 1515 1517 1519 1521 1523 1524 1525 1526 1527 1527 1528 1527 1527 1527 1527 1527 1526 1526 1525 1523 1520 1519 1517 1516 1515 1513 1511 1509 1508 1507 1506 1504 1502 1501 1499 1498 1496 1494
1503 1506 1508 1511 1514 1516 1518 1519 1521 1523 1524 1525 1526 1527 1527 1527 1527 1526 1525 1525 1524 1524 1523 1522 1520 1517 1515 1514 1512 1510 1509 1507 1506 1505 1503 1502 1500 1498 1496 1494 1492 1489 1487
1505 1508 1510 1513 1515 1517 1519 1521 1522 1524 1525 1526 1527 1527 1528 1528 1527 1525 1524 1523 1522 1521 1520 1519 1517 1515 1513 1511 1509 1507 1505 1504 1503 1502 1500 1498 1495 1493 1490 1487 1485 1482 1480
1507 1510 1513 1515 1517 1519 1521 1523 1524 1525 1526 1527 1527 1528 1528 1527 1527 1525 1524 1523 1521 1520 1518 1516 1514 1512 1511 1509 1507 1506 1504 1502 1499 1497 1495 1492 1490 1487 1485 1482 1480 1477 1474
1510 1513 1516 1517 1519 1520 1522 1523 1525 1525 1526 1527 1527 1528 1527 1527 1525 1523 1522 1521 1519 1517 1516 1515 1514 1512 1510 1508 1506 1503 1501 1499 1496 1493 1491 1488 1485 1482 1480 1477 1474 1471 1469
1513 1516 1518 1520 1521 1522 1523 1524 1524 1525 1526 1526 1526 1526 1525 1524 1523 1522 1521 1519 1517 1515 1514 1514 1512 1510 1508 1505 1503 1500 1498 1495 1492 1490 1487 1484 1481 1478 1475 1472 1469 1466 1463
1515 1518 1520 1522 1523 1524 1525 1526 1526 1526 1526 1526 1525 1525 1524 1523 1522 1521 1519 1517 1516 1514 1514 1512 1510 1507 1505 1502 1500 1497 1494 1492 1488 1485 1482 1479 1476 1473 1470 1467 1464 1461 1457
1518 1520 1522 1523 1524 1525 1526 1527 1527 1528 1527 1526 1525 1524 1523 1522 1521 1520 1518 1516 1516 1514 1513 1510 1508 1505 1503 1500 1497 1494 1491 1488 1485 1482 1478 1475 1472 1469 1465 1462 1459 1455 1451
1520 1521 1522 1523 1524 1525 1526 1527 1527 1528 1527 1527 1526 1525 1523 1522 1520 1519 1517 1517 1515 1513 1511 1508 1506 1503 1500 1497 1494 1491 1488 1485 1482 1478 1475 1471 1468 1464 1460 1457 1453 1449 1445
1521 1521 1523 1524 1525 1526 1527 1527 1527 1527 1527 1527 1526 1525 1524 1523 1522 1520 1518 1516 1514 1512 1509 1506 1504 1501 1498 1495 1492 1488 1485 1482 1478 1474 1471 1467 1463 1459 1455 1451 1447 1443 1440
1523 1523 1523 1525 1526 1526 1527 1527 1527 1527 1527 1527 1526 1524 1522 1522 1521 1519 1517 1514 1512 1510 1507 1504 1501 1499 1496 1492 1489 1485 1482 1478 1475 1471 1466 1462 1458 1454 1450 1446 1442 1438 1434
1524 1524 1525 1526 1526 1526 1527 1527 1527 1527 1526 1526 1525 1524 1521 1521 1520 1518 1516 1513 1511 1508 1505 1502 1499 1496 1493 1489 1486 1482 1479 1475 1471 1466 1462 1458 1453 1449 1445 1441 1437 1433 1429
1524 1525 1525 1526 1526 1526 1527 1527 1527 1527 1526 1525 1524 1523 1522 1520 1519 1517 1514 1512 1509 1506 1503 1500 1497 1494 1490 1487 1483 1480 1476 1471 1467 1462 1457 1453 1449 1444 1440 1436 1432 1428 1424
1525 1526 1526 1526 1527 1527 1527 1527 1527 1526 1526 1525 1524 1522 1521 1519 1518 1515 1513 1510 1507 1504 1501 1498 1495 1491 1488 1484 1480 1477 1473 1468 1463 1458 1453 1449 1444 1440 1436 1432 1428 1424 1420
1525 1526 1526 1527 1527 1527 1527 1527 1527 1526 1525 1524 1523 1522 1520 1519 1516 1514 1511 1508 1505 1502 1499 1496 1493 1489 1485 1481 1478 1473 1469 1464 1459 1454 1449 1445 1440 1436 1432 1428 1424 1420 1416
1526 1526 1527 1527 1527 1527 1527 1527 1526 1526 1525 1524 1522 1521 1519 1517 1515 1512 1510 1507 1504 1501 1497 1494 1491 1487 1483 1479 1474 1469 1465 1460 1455 1451 1446 1441 1437 1433 1429 1425 1420 1416 1412